[[{"header":{"parameterUnit":"m.s-1","parameterCategory":1,"la1":30.2992,"la2":30.254,"lo1":-89.0895,"lo2":-89.0443,"dy":0.0025,"dx":0.0025,"nx":19,"ny":19,"refTime":"2026-04-05T03:00:00:Z","depth":0,"parameterNumber":2,"parameterNumberName":"U-component_of_WINDS"},"data":[0,0,0,-3.2782,-3.2783,-3.2844,-3.2844,-3.2941,-3.2942,0,0,0,0,0,0,0,0,0,0,0,-3.2776,-3.2777,-3.2782,-3.2783,-3.2844,-3.2844,-3.2941,-3.2942,0,0,0,0,0,0,0,0,0,0,0,-3.2776,-3.2777,-3.2778,-3.2784,-3.2844,-3.2844,-3.2941,-3.2888,0,0,0,0,0,0,0,0,0,0,-3.2826,-3.2833,-3.2777,-3.2779,-3.2784,-3.2844,-3.2844,-3.2885,-3.2891,-3.2922,0,-3.2954,0,-3.295,-3.295,-3.295,0,0,0,-3.2774,-3.2828,-3.2833,-3.2779,-3.2785,-3.2844,-3.2814,-3.2888,-3.2895,-3.2931,-3.2955,-3.2958,-3.2951,-3.2951,-3.2951,-3.3165,-3.3166,0,0,-3.2771,-3.2794,-3.2828,-3.2838,-3.2831,-3.2812,-3.2816,-3.2892,-3.292,-3.2955,-3.296,-3.2953,-3.2952,-3.2952,-3.3163,-3.3165,0,0,0,-3.2767,-3.2792,-3.2795,-3.2835,-3.2844,-3.2814,-3.2819,-3.2917,-3.2916,-3.2961,-3.2954,-3.2952,-3.2954,-3.3162,-3.3164,-3.326,0,0,0,-3.2765,-3.279,-3.2794,-3.2809,-3.2843,-3.2881,-3.2842,-3.291,-3.2918,-3.2954,-3.2952,-3.2955,-3.316,-3.3163,-3.3254,-3.3302,0,0,0,-3.2768,-3.279,-3.2803,-3.281,-3.2837,-3.288,-3.2883,-3.2912,-3.2915,-3.2951,-3.2955,-3.3159,-3.3162,-3.3248,-3.3293,-3.3367,0,0,0,-3.2778,-3.2887,-3.2805,-3.2924,-3.2836,-3.2938,-3.2882,-3.2956,-3.2998,-3.2953,-3.316,-3.3164,-3.3247,-3.3287,-3.3361,-3.3435,-3.3468,0,0,-3.2928,-3.2906,-3.2973,-3.2902,-3.3025,-3.2927,-3.3063,-3.3079,-3.306,-3.3131,-3.3135,-3.3256,-3.3292,-3.3366,-3.3636,-3.3662,0,0,0,-3.3029,-3.3078,-3.3105,-3.3147,-3.3162,-3.3179,-3.3171,-3.3177,-3.3236,-3.3101,-3.33,-3.3321,-3.3363,-3.3398,-3.342,-3.3455,-3.318,-3.3179,-3.3179,-3.3277,-3.3247,-3.3358,-3.3336,-3.3377,-3.3368,-3.3398,-3.3404,-3.3362,-3.3409,-3.3431,-3.3599,-3.364,-3.3656,-3.3694,-3.3465,-3.3466,-3.3466,-3.3466,-3.3496,-3.3563,-3.3503,-3.359,-3.3558,-3.363,-3.3625,-3.3593,-3.3655,-3.358,-3.3615,-3.3538,-3.3686,-3.3717,-3.3473,-3.3472,-3.3471,-3.347,-3.347,-3.3658,-3.3685,-3.369,-3.3747,-3.3794,-3.3766,-3.383,-3.3797,-3.3767,-3.3802,-3.3823,-3.3821,-3.3818,-3.3813,-3.3814,-3.3814,-3.3815,-3.3815,-3.3816,-3.3825,-3.3828,-3.3885,-3.391,-3.3933,-3.3958,-3.3949,-3.397,-3.3985,-3.3956,-3.3956,-3.3911,-3.3705,-3.3655,-3.3825,-3.3823,-3.3822,-3.3821,-3.3821,-3.4065,-3.4005,-3.4095,-3.4118,-3.4144,-3.4193,-3.415,-3.4195,-3.4208,-3.424,-3.4186,-3.4038,-3.4012,-3.3995,-3.3954,-3.419,-3.419,-3.419,-3.419,-3.4204,-3.4187,-3.4271,-3.431,-3.4344,-3.4313,-3.4416,-3.4409,-3.4393,-3.4399,-3.4359,-3.4301,-3.4284,-3.4269,-3.4245,-3.4207,-3.4502,-3.4502,-3.4503,-3.435,-3.4335,-3.443,-3.4413,-3.4431,-3.4447,-3.4542,-3.4589,-3.4557,-3.4515,-3.4403,-3.439,-3.4296,-3.4266,-3.4225,-3.4188,-3.4117,0,0]},{"header":{"parameterUnit":"m.s-1","parameterCategory":1,"la1":30.2992,"la2":30.254,"lo1":-89.0895,"lo2":-89.0443,"dy":0.0025,"dx":0.0025,"nx":19,"ny":19,"refTime":"2026-04-05T03:00:00:Z","depth":0,"parameterNumber":3,"parameterNumberName":"V-component_of_WINDS"},"data":[0,0,0,-6.4445,-6.4447,-6.4494,-6.4494,-6.4572,-6.4573,0,0,0,0,0,0,0,0,0,0,0,-6.4443,-6.4444,-6.4445,-6.4447,-6.4494,-6.4494,-6.4572,-6.4573,0,0,0,0,0,0,0,0,0,0,0,-6.4443,-6.4444,-6.4445,-6.4447,-6.4494,-6.4494,-6.4571,-6.4529,0,0,0,0,0,0,0,0,0,0,-6.448,-6.449,-6.4444,-6.4445,-6.4447,-6.4494,-6.4494,-6.4527,-6.4532,-6.4558,0,-6.4586,0,-6.4581,-6.4579,-6.4579,0,0,0,-6.4438,-6.4486,-6.4488,-6.4445,-6.4448,-6.4494,-6.447,-6.4529,-6.4535,-6.4565,-6.4587,-6.4589,-6.4582,-6.458,-6.458,-6.4766,-6.4768,0,0,-6.4435,-6.4458,-6.4485,-6.4493,-6.4488,-6.4469,-6.4472,-6.4533,-6.4557,-6.4587,-6.4591,-6.4583,-6.458,-6.4581,-6.4765,-6.4767,0,0,0,-6.4434,-6.4456,-6.4457,-6.449,-6.4497,-6.447,-6.4474,-6.4555,-6.4553,-6.4591,-6.4584,-6.4581,-6.4582,-6.4764,-6.4766,-6.4853,0,0,0,-6.4432,-6.4455,-6.4456,-6.447,-6.4497,-6.4527,-6.4495,-6.4549,-6.4555,-6.4584,-6.4581,-6.4583,-6.4762,-6.4765,-6.4848,-6.4891,0,0,0,-6.4436,-6.4456,-6.4467,-6.4471,-6.4493,-6.4525,-6.4527,-6.455,-6.4551,-6.458,-6.4583,-6.4761,-6.4764,-6.4843,-6.4882,-6.4947,0,0,0,-6.4447,-6.4543,-6.4469,-6.4573,-6.4493,-6.458,-6.4526,-6.4589,-6.4624,-6.4581,-6.4762,-6.4765,-6.4841,-6.4877,-6.4942,-6.5006,-6.5035,0,0,-6.4581,-6.456,-6.4619,-6.4554,-6.4661,-6.457,-6.4689,-6.4698,-6.4679,-6.4738,-6.4742,-6.4849,-6.4882,-6.4946,-6.5187,-6.521,0,0,0,-6.4669,-6.4713,-6.4736,-6.4771,-6.4781,-6.4794,-6.4783,-6.4786,-6.4835,-6.4715,-6.4889,-6.4908,-6.4944,-6.4974,-6.4994,-6.5024,-6.478,-6.478,-6.4779,-6.4892,-6.4863,-6.496,-6.4938,-6.4973,-6.4961,-6.4986,-6.4988,-6.4948,-6.499,-6.5008,-6.5158,-6.5193,-6.5208,-6.524,-6.5039,-6.5039,-6.5039,-6.504,-6.5085,-6.5143,-6.5089,-6.5164,-6.5133,-6.5195,-6.5187,-6.5157,-6.521,-6.5142,-6.5173,-6.5102,-6.5234,-6.526,-6.5046,-6.5045,-6.5044,-6.5043,-6.5043,-6.5228,-6.5251,-6.5254,-6.5303,-6.5342,-6.5316,-6.537,-6.5339,-6.531,-6.5341,-6.5356,-6.5355,-6.535,-6.535,-6.5351,-6.5351,-6.5352,-6.5352,-6.5352,-6.5376,-6.5377,-6.5426,-6.5446,-6.5465,-6.5486,-6.5475,-6.5492,-6.5503,-6.5477,-6.5477,-6.5433,-6.5252,-6.5208,-6.536,-6.5359,-6.5358,-6.5357,-6.5357,-6.5584,-6.5532,-6.5609,-6.5628,-6.5649,-6.5691,-6.5651,-6.5689,-6.5699,-6.5726,-6.5676,-6.5547,-6.5523,-6.5507,-6.547,-6.5682,-6.5682,-6.5682,-6.5682,-6.5705,-6.569,-6.5762,-6.5795,-6.5823,-6.5795,-6.5883,-6.5875,-6.5859,-6.5863,-6.5828,-6.5776,-6.5761,-6.5746,-6.5725,-6.569,-6.5953,-6.5953,-6.5953,-6.5832,-6.5818,-6.5899,-6.5884,-6.5898,-6.5911,-6.5992,-6.6031,-6.6001,-6.5963,-6.5866,-6.5855,-6.577,-6.5744,-6.5705,-6.5673,-6.5608,0,0]}]]